Temperature
9 7 7 8 9 9 9 9 9 10 10 10 9 9 9 10 10 10 11 11 11 11 11 11 11 11 11 11 11 11 11 11 11 11 11 11 11 10 10 10 10 10 10 10
7 7 9 9 10 9 9 9 9 9 10 10 9 9 9 9 10 10 11 11 11 11 11 11 11 11 11 11 11 11 11 11 11 11 11 10 10 10 10 10 10 9 9 9
7 8 9 9 9 9 9 9 9 9 9 10 10 9 9 10 10 10 11 11 11 11 11 11 11 11 11 11 11 11 11 11 10 10 10 10 10 10 10 9 9 9 9 9
7 8 9 8 8 9 9 9 9 9 8 8 9 8 9 9 9 9 10 10 11 11 11 11 11 11 11 11 10 10 10 10 10 10 10 10 10 9 9 9 9 9 9 9
7 8 8 8 8 8 8 9 9 9 8 8 8 8 8 8 10 9 9 10 11 11 11 11 11 11 11 10 10 10 10 10 10 10 10 9 9 9 9 9 9 9 8 8
8 8 8 8 8 8 8 8 8 6 6 8 9 8 8 8 9 10 9 10 11 11 10 11 10 10 10 10 10 10 9 9 9 9 9 9 9 9 8 8 8 8 8 8
7 8 8 8 8 8 8 7 7 8 7 8 8 8 8 9 9 9 9 10 10 10 10 10 10 10 10 10 10 9 9 9 9 9 9 8 8 8 8 8 8 8 7 7
7 7 7 8 8 8 8 8 7 9 8 7 7 7 8 9 9 10 10 10 10 10 10 10 10 10 10 9 9 9 9 9 9 8 8 8 8 8 8 7 7 7 7 7
7 7 8 8 8 8 8 7 7 6 7 7 7 7 8 9 9 9 9 9 10 10 10 10 10 10 9 9 9 9 9 8 8 8 8 8 8 7 7 7 7 6 6 6
7 7 7 8 8 8 8 7 5 6 8 8 8 7 7 8 8 8 8 9 10 10 10 10 10 9 9 9 9 8 8 8 8 8 8 7 7 7 7 7 6 6 6 6
7 6 6 7 7 7 7 7 6 5 6 7 7 8 8 8 8 7 8 9 10 10 10 10 9 9 9 8 8 8 8 8 8 7 7 7 7 7 7 6 6 6 6 5
7 5 5 6 7 7 7 7 6 6 6 5 5 7 8 7 7 8 9 9 9 9 9 9 9 9 8 8 8 8 7 7 7 7 7 7 7 6 6 6 6 6 5 5
7 6 6 7 7 7 7 7 7 6 5 4 5 7 7 7 8 9 9 9 9 9 9 9 8 8 8 8 8 7 7 7 7 7 6 6 6 6 6 6 5 5 5 5
7 5 5 7 7 6 6 6 6 6 4 4 5 6 7 7 7 8 9 9 9 9 8 8 8 8 7 7 7 7 7 6 6 6 6 6 6 6 5 5 5 5 4 4
6 5 5 5 6 6 6 6 6 5 5 5 5 5 7 7 7 8 8 8 8 8 8 8 7 7 7 7 7 6 6 6 6 6 6 5 5 5 5 5 5 4 4 4
5 5 5 5 6 5 5 5 5 6 6 6 6 6 6 8 8 8 8 8 8 8 7 7 7 7 6 6 6 6 6 6 5 5 5 5 5 5 5 4 4 4 4 4
4 4 4 4 4 5 5 6 5 5 5 5 6 6 6 6 7 8 8 8 7 7 7 7 7 6 6 6 6 5 5 5 5 5 5 5 4 4 4 4 4 4 3 3
4 4 3 3 4 5 7 7 6 6 6 6 6 6 6 7 8 8 8 7 7 7 7 6 6 6 5 5 5 5 5 5 5 4 4 4 4 4 4 3 3 3 3 3
3 4 3 3 3 4 6 7 6 6 6 6 6 6 7 7 7 6 7 7 7 6 6 6 6 5 5 5 5 5 5 4 4 4 4 4 4 3 3 3 3 3 3 2
2 3 3 3 4 6 7 7 7 7 6 6 6 5 6 6 4 5 7 6 6 6 6 5 5 5 5 5 4 4 4 4 4 4 4 3 3 3 3 3 2 2 2 2
2 2 2 3 3 4 6 7 7 6 7 7 7 7 6 5 6 7 6 6 6 5 5 5 5 5 4 4 4 4 4 4 3 3 3 3 3 2 2 2 2 2 2 2
2 2 2 2 3 4 6 5 5 6 7 7 7 7 6 6 6 6 5 5 5 5 5 4 4 4 4 4 4 4 3 3 3 3 3 3 3 2 2 2 2 1 1 1
2 3 3 3 5 6 7 7 8 7 7 7 7 6 6 6 5 5 5 4 4 4 4 4 4 4 4 3 3 3 3 3 3 3 3 3 2 2 2 1 1 1 1 1
2 3 2 2 3 5 6 7 7 7 7 6 6 6 5 5 5 4 4 4 4 4 4 3 3 3 3 3 3 3 3 2 2 2 2 2 2 2 2 1 1 1 0 0
3 3 2 3 3 5 6 7 6 6 6 5 5 5 4 4 4 4 3 3 3 3 3 3 3 3 3 3 3 3 2 2 2 2 2 2 1 1 1 1 1 0 0 -0
2 3 3 4 5 4 6 6 6 5 5 5 4 4 4 4 3 3 3 3 3 3 3 2 2 2 2 2 2 2 2 1 1 1 1 1 1 1 1 0 0 0 -0 -0
Wind_Speed
5 7 4 1 2 4 4 5 3 1 1 1 2 4 6 5 5 7 7 6 6 7 4 4 5 5 4 4 4 4 3 2 2 2 2 1 0 0 1 1 3 4 5 5
7 5 3 2 1 4 5 5 2 1 1 1 1 4 5 5 5 7 8 8 7 5 3 4 5 4 5 5 5 4 4 3 2 2 2 2 2 1 1 0 2 3 3 4
5 2 4 4 6 6 4 3 3 2 2 2 1 5 4 3 2 3 4 5 5 6 7 6 6 5 5 5 6 5 4 4 3 3 2 2 1 1 1 1 1 2 2 2
4 5 4 6 5 4 2 1 2 2 3 2 1 2 5 3 2 2 4 4 5 5 5 5 6 6 6 6 5 5 4 4 4 4 4 4 3 2 2 1 1 1 2 2
3 3 4 4 3 2 2 0 2 2 2 2 1 2 7 2 2 3 4 4 5 5 5 6 7 7 6 5 4 4 4 4 4 4 5 4 3 3 2 1 1 2 2 2
2 1 2 1 2 1 1 4 5 5 4 1 2 3 5 4 5 4 4 4 4 4 4 4 4 4 3 3 3 3 4 4 4 4 5 5 5 4 3 3 2 2 2 2
5 4 4 2 3 4 4 5 4 4 4 4 2 2 7 5 4 5 6 5 4 4 3 3 3 3 3 3 4 4 4 5 4 5 5 5 6 6 5 5 4 3 2 2
3 3 3 2 1 0 1 4 5 3 3 4 3 4 6 4 1 2 4 4 4 3 3 3 4 4 4 4 4 4 5 5 4 4 5 5 5 4 4 5 4 4 4 4
3 2 3 1 0 2 2 1 3 5 1 2 5 6 5 1 2 3 3 3 3 2 2 2 2 2 3 4 4 5 5 5 4 4 4 4 4 5 5 5 4 4 4 4
3 1 3 3 2 2 2 3 4 3 3 3 5 5 4 4 4 3 3 3 3 3 2 2 2 2 3 3 3 3 4 5 5 4 4 4 4 5 5 4 5 5 5 4
3 3 2 3 2 2 1 1 3 3 3 4 3 6 5 6 6 6 5 5 5 4 4 3 3 2 2 2 2 2 3 4 4 4 4 4 4 4 4 5 6 5 5 5
2 3 1 4 4 2 3 3 5 3 3 3 3 7 4 4 5 6 5 4 4 3 3 3 2 1 1 2 2 3 3 4 5 4 4 4 4 4 4 5 6 5 5 5
2 4 2 4 3 2 2 3 3 3 3 4 4 7 3 1 2 3 4 4 3 3 2 2 2 2 2 3 3 4 4 5 5 4 4 4 4 4 5 6 6 5 5 5
3 2 5 6 5 4 4 4 4 4 4 5 8 7 4 3 3 4 4 4 3 3 2 2 2 3 3 4 4 4 5 4 4 4 4 5 6 6 6 6 5 5 5 5
3 2 3 6 6 5 7 8 8 9 9 9 8 8 9 8 7 5 4 3 2 3 2 2 2 3 4 4 5 5 5 5 4 4 5 6 6 6 5 5 6 5 6 6
2 1 2 5 4 5 8 11 11 11 10 11 9 11 8 6 4 3 3 3 3 3 3 3 3 4 5 5 6 5 6 5 4 4 5 6 5 5 6 6 6 5 6 6
2 3 1 4 6 7 9 10 11 7 7 9 12 9 3 3 4 4 4 4 4 4 4 4 5 5 6 6 5 6 6 5 4 5 5 5 5 6 6 6 5 6 6 6
6 4 2 2 4 6 7 2 6 7 7 8 7 4 4 5 4 4 4 4 3 4 4 5 5 5 5 5 5 5 5 4 5 5 5 5 5 6 6 6 6 7 6 6
5 6 3 2 4 9 9 4 4 5 5 5 7 6 3 2 1 2 3 3 4 4 5 5 5 5 5 5 5 4 5 4 5 5 6 6 6 6 6 6 7 6 5 6
3 4 4 4 4 7 6 2 2 3 4 3 4 5 3 3 1 5 4 3 4 4 4 4 4 4 4 5 4 4 5 5 6 7 7 7 6 6 7 8 7 6 6 7
4 4 6 6 7 9 7 3 4 3 5 2 4 4 5 5 6 4 3 4 4 5 5 4 4 4 5 5 3 4 5 6 7 7 7 6 6 6 7 7 6 5 6 6
9 8 8 7 7 10 5 6 7 7 2 2 3 3 4 5 5 4 4 5 5 5 5 4 4 5 6 4 4 6 7 7 6 6 6 7 7 6 6 6 6 5 5 6
9 10 7 10 10 5 5 7 5 4 4 4 4 4 4 4 5 5 5 5 5 5 5 4 5 6 6 5 4 7 8 7 6 6 7 7 7 6 6 6 6 5 5 5
5 5 5 7 10 7 7 5 3 4 5 4 5 4 4 5 5 6 5 5 5 5 5 5 5 6 7 7 6 7 8 7 6 7 8 7 6 7 6 5 5 5 6 6
7 6 5 8 7 5 6 6 6 4 4 3 4 4 4 5 5 5 5 6 6 6 5 5 6 7 9 8 8 8 7 6 6 7 8 7 6 6 6 6 6 7 7 8
7 9 9 10 8 7 6 5 5 5 5 5 5 4 4 4 6 6 6 6 6 6 5 6 7 7 8 8 9 9 7 6 6 7 7 6 6 6 6 6 7 9 10 13
Wind_Direction
25 60 59 347 185 171 145 127 127 229 275 118 217 258 264 242 214 212 211 207 208 216 210 181 169 157 147 147 148 154 154 160 129 115 113 109 110 25 29 24 31 26 18 22
46 38 325 314 66 102 107 108 93 10 358 136 266 282 272 247 223 213 207 208 207 206 196 184 175 172 171 172 176 174 179 179 172 162 161 167 173 192 212 318 14 17 17 18
95 300 320 55 60 78 51 128 149 155 355 24 13 319 294 278 239 219 206 201 196 194 197 194 185 190 188 194 197 192 194 193 190 172 142 121 87 30 356 326 320 343 358 7
54 344 33 61 39 67 74 353 121 101 76 332 74 286 286 279 277 227 207 191 199 198 194 193 192 196 202 212 208 200 198 199 196 174 164 172 181 204 227 229 254 305 332 347
32 4 43 52 354 44 158 314 74 78 96 11 18 159 284 303 245 246 223 204 203 198 192 198 200 200 206 208 208 210 204 208 202 184 182 182 197 212 228 246 274 292 307 310
45 9 53 14 324 23 109 54 49 46 66 338 241 172 273 248 229 220 208 196 190 188 188 195 203 195 208 212 213 216 210 221 212 198 194 192 203 212 221 242 254 270 278 287
11 1 354 17 29 13 57 79 43 9 8 259 288 194 252 264 246 202 189 189 188 178 166 187 203 206 216 220 222 220 218 230 223 211 209 206 210 210 217 230 235 242 254 260
72 324 321 360 108 175 19 125 148 185 225 285 326 245 262 293 322 136 147 157 156 167 191 203 213 216 222 233 231 227 229 238 232 222 224 219 216 216 227 229 227 232 237 242
127 251 308 325 343 127 106 104 158 131 148 283 286 286 304 58 79 104 120 129 164 204 224 235 246 239 239 244 240 232 234 244 245 238 235 233 226 223 230 233 228 235 237 239
135 156 293 318 30 14 133 141 91 117 153 263 295 274 245 223 201 169 164 175 203 225 250 262 257 249 247 246 250 254 241 244 250 247 240 241 237 233 232 230 231 234 238 236
91 128 311 350 225 211 152 130 118 121 157 168 261 272 230 206 188 177 192 202 209 218 234 246 253 259 268 284 281 271 265 261 262 254 246 249 250 241 237 236 238 236 236 230
88 119 247 266 274 245 200 190 153 158 221 190 207 269 283 194 181 179 198 217 227 234 237 242 253 271 284 290 291 283 275 268 263 257 250 250 252 246 243 246 245 236 235 233
105 112 38 343 331 334 252 220 178 144 135 172 193 262 311 136 173 198 204 225 238 248 252 260 265 268 277 283 289 288 282 273 271 263 255 257 256 249 247 249 248 241 238 239
103 143 186 212 227 204 238 239 198 158 185 219 226 246 273 247 239 244 237 235 237 252 251 263 269 275 280 282 281 283 285 280 278 268 257 258 258 252 249 250 248 242 236 235
107 198 243 256 264 240 236 237 219 210 207 214 238 232 244 239 235 232 231 230 229 254 271 273 268 277 284 287 285 283 284 284 281 277 268 262 262 258 254 252 250 243 237 236
110 178 311 295 292 279 266 247 229 228 226 234 251 262 249 238 219 223 232 220 223 247 256 267 279 285 286 285 281 282 283 282 279 276 273 273 271 267 261 257 251 245 244 241
162 155 180 278 315 333 277 241 208 208 210 201 230 244 235 218 226 227 221 214 226 246 254 267 271 268 273 277 277 278 277 280 278 275 277 278 275 271 266 261 255 250 246 241
157 148 169 281 345 257 249 244 190 205 232 214 219 225 207 214 226 226 200 203 237 253 262 270 269 270 272 272 279 281 282 279 276 277 279 280 277 274 271 264 256 252 247 242
158 153 166 198 271 279 290 259 178 186 257 223 212 224 226 207 50 295 219 206 231 249 258 258 259 263 269 276 281 289 289 284 282 281 281 280 276 275 275 268 262 256 249 247
105 131 157 184 230 252 258 229 148 117 268 245 184 200 199 136 252 262 254 274 279 277 269 266 271 277 282 284 285 289 289 287 280 276 275 276 272 270 270 267 265 259 249 248
144 168 192 205 235 264 256 209 126 175 247 209 179 191 184 196 219 241 269 279 278 282 282 281 284 281 276 278 279 278 281 276 274 276 278 278 273 268 267 269 264 262 256 253
179 179 193 183 212 252 219 149 181 216 215 181 186 201 209 226 246 258 265 274 283 288 289 287 284 286 285 277 269 275 277 275 280 282 281 279 276 275 276 270 270 263 253 254
200 195 190 197 215 247 192 199 214 186 190 198 201 217 215 230 247 257 263 271 275 275 279 279 274 284 289 280 261 268 277 283 285 286 283 281 279 274 268 264 267 268 254 250
242 195 195 239 256 250 239 238 230 203 202 209 210 216 215 235 252 262 268 272 274 274 278 280 282 285 288 285 273 263 273 278 277 281 284 282 280 282 275 264 255 254 251 249
224 190 212 246 261 275 253 225 212 206 208 222 228 224 226 239 258 260 267 272 270 272 274 272 273 277 282 286 283 279 274 272 277 282 283 281 275 274 279 271 256 253 246 240
205 201 210 238 227 215 238 226 205 205 218 224 229 244 247 239 252 263 268 272 272 272 273 276 276 277 282 284 285 285 277 265 269 282 282 278 277 275 273 277 284 265 257 262
Height
1511 1516 1521 1520 1518 1519 1520 1523 1525 1525 1522 1523 1524 1523 1521 1520 1520 1520 1520 1521 1523 1524 1526 1527 1528 1529 1530 1530 1531 1531 1531 1531 1531 1530 1530 1530 1529 1529 1529 1528 1527 1526 1525 1524
1518 1522 1520 1518 1517 1518 1521 1525 1526 1525 1523 1524 1525 1524 1520 1518 1518 1517 1518 1519 1520 1523 1524 1525 1526 1527 1528 1529 1529 1529 1529 1529 1529 1529 1529 1528 1528 1527 1526 1526 1525 1525 1523 1522
1523 1524 1520 1519 1520 1521 1524 1526 1527 1527 1526 1524 1526 1525 1521 1517 1516 1516 1516 1517 1519 1521 1522 1523 1524 1525 1526 1527 1527 1527 1527 1528 1527 1527 1527 1526 1526 1525 1525 1524 1524 1523 1522 1520
1525 1523 1522 1522 1524 1523 1527 1525 1524 1526 1530 1533 1530 1536 1523 1519 1517 1515 1516 1516 1518 1519 1520 1521 1522 1523 1524 1525 1525 1525 1525 1525 1525 1525 1525 1524 1523 1523 1523 1522 1521 1520 1519 1518
1528 1526 1525 1526 1526 1525 1526 1525 1525 1527 1531 1534 1533 1537 1528 1520 1517 1516 1515 1515 1516 1518 1518 1519 1520 1522 1522 1523 1523 1523 1523 1523 1523 1522 1522 1522 1521 1520 1520 1519 1518 1517 1517 1515
1527 1526 1526 1526 1525 1525 1525 1527 1529 1534 1537 1537 1531 1536 1529 1522 1516 1514 1514 1514 1515 1517 1518 1519 1520 1520 1521 1521 1521 1521 1520 1520 1520 1520 1520 1519 1518 1517 1517 1516 1515 1514 1513 1512
1531 1529 1527 1527 1527 1527 1528 1534 1542 1540 1545 1538 1532 1533 1528 1516 1512 1511 1512 1513 1515 1516 1517 1518 1518 1519 1519 1519 1519 1519 1518 1518 1518 1518 1517 1516 1515 1514 1514 1513 1512 1511 1510 1509
1535 1537 1530 1528 1529 1530 1529 1532 1541 1539 1542 1540 1534 1532 1522 1514 1512 1511 1512 1513 1515 1516 1516 1517 1517 1518 1518 1518 1518 1517 1516 1516 1515 1515 1513 1513 1512 1511 1510 1510 1509 1508 1507 1506
1535 1536 1531 1529 1528 1528 1530 1534 1534 1542 1543 1544 1538 1529 1518 1513 1513 1513 1513 1514 1515 1516 1516 1516 1516 1516 1516 1516 1516 1515 1514 1513 1512 1511 1510 1509 1509 1508 1507 1506 1505 1504 1503 1502
1531 1536 1532 1530 1529 1529 1530 1532 1539 1541 1541 1540 1535 1530 1525 1516 1514 1514 1514 1514 1515 1515 1515 1516 1515 1515 1515 1514 1514 1513 1512 1511 1510 1509 1508 1507 1506 1505 1504 1503 1501 1500 1500 1499
1530 1536 1536 1533 1532 1531 1532 1532 1536 1542 1542 1542 1539 1530 1514 1512 1512 1513 1513 1513 1514 1514 1514 1514 1514 1513 1513 1512 1511 1510 1509 1508 1507 1506 1505 1503 1502 1501 1500 1499 1497 1497 1496 1495
1531 1537 1540 1535 1531 1529 1530 1530 1534 1538 1539 1543 1543 1532 1510 1510 1510 1511 1512 1512 1513 1513 1513 1513 1512 1512 1511 1510 1509 1508 1506 1505 1504 1503 1501 1500 1499 1497 1496 1495 1493 1492 1491 1490
1530 1536 1539 1535 1536 1532 1530 1529 1530 1534 1539 1545 1544 1529 1511 1510 1510 1510 1510 1511 1511 1511 1511 1511 1510 1509 1509 1508 1506 1505 1504 1502 1501 1499 1498 1496 1495 1493 1492 1490 1489 1488 1486 1485
1529 1535 1538 1533 1530 1530 1530 1528 1528 1532 1539 1539 1533 1522 1514 1511 1510 1510 1509 1509 1509 1509 1509 1508 1508 1507 1506 1505 1503 1502 1500 1499 1497 1495 1494 1492 1490 1489 1487 1486 1484 1483 1482 1480
1530 1535 1533 1531 1528 1528 1527 1525 1525 1527 1527 1528 1521 1519 1510 1508 1507 1507 1507 1507 1507 1507 1507 1506 1505 1504 1503 1502 1500 1498 1496 1495 1493 1491 1489 1487 1486 1484 1483 1481 1479 1478 1477 1475
1530 1533 1532 1531 1526 1526 1524 1519 1519 1519 1518 1517 1515 1511 1504 1504 1505 1505 1505 1505 1505 1505 1504 1504 1503 1501 1500 1498 1496 1494 1492 1490 1489 1487 1485 1483 1481 1479 1478 1476 1474 1473 1471 1470
1531 1533 1535 1535 1530 1525 1520 1508 1510 1510 1508 1509 1510 1505 1502 1503 1503 1502 1502 1502 1502 1502 1501 1500 1499 1498 1496 1494 1492 1490 1488 1486 1484 1482 1480 1479 1476 1474 1473 1471 1469 1467 1466 1464
1529 1532 1536 1536 1531 1526 1506 1499 1500 1503 1501 1501 1500 1499 1499 1499 1499 1500 1500 1500 1499 1498 1498 1497 1495 1493 1492 1490 1488 1486 1484 1482 1480 1478 1476 1474 1472 1469 1467 1465 1463 1462 1460 1458
1525 1529 1535 1536 1534 1521 1504 1498 1498 1500 1499 1496 1497 1497 1497 1497 1498 1497 1497 1497 1496 1495 1494 1493 1491 1489 1487 1486 1484 1482 1480 1478 1476 1474 1471 1469 1467 1464 1462 1460 1458 1456 1454 1452
1525 1526 1532 1533 1529 1516 1499 1495 1494 1498 1499 1493 1493 1494 1495 1496 1499 1496 1494 1493 1493 1492 1490 1489 1487 1485 1483 1482 1480 1478 1475 1473 1471 1469 1467 1465 1462 1459 1457 1454 1452 1450 1448 1446
1527 1528 1530 1530 1526 1511 1496 1494 1495 1502 1496 1491 1491 1491 1492 1493 1493 1492 1491 1490 1489 1488 1486 1484 1483 1481 1479 1477 1475 1473 1471 1469 1467 1464 1462 1459 1457 1454 1451 1449 1446 1444 1442 1440
1518 1523 1524 1524 1524 1509 1491 1492 1494 1491 1489 1488 1489 1489 1489 1489 1489 1488 1488 1486 1485 1483 1482 1480 1478 1477 1475 1473 1471 1468 1466 1464 1461 1459 1456 1454 1451 1449 1446 1443 1440 1438 1436 1434
1508 1505 1505 1505 1498 1489 1487 1486 1486 1486 1486 1486 1486 1486 1486 1486 1485 1484 1483 1482 1481 1479 1478 1476 1474 1472 1471 1469 1466 1464 1462 1459 1456 1453 1451 1448 1445 1443 1440 1437 1434 1432 1430 1428
1498 1495 1498 1497 1488 1484 1484 1483 1483 1484 1483 1483 1483 1483 1483 1482 1481 1480 1479 1477 1476 1475 1473 1472 1470 1468 1466 1464 1461 1459 1457 1454 1451 1448 1445 1442 1439 1437 1434 1432 1429 1426 1424 1421
1490 1491 1491 1488 1482 1481 1479 1479 1479 1480 1480 1480 1479 1479 1478 1477 1476 1475 1474 1473 1471 1470 1469 1467 1465 1463 1461 1458 1456 1454 1451 1448 1445 1442 1439 1437 1434 1431 1428 1425 1423 1420 1418 1416
1482 1483 1484 1479 1475 1476 1474 1475 1475 1475 1475 1475 1475 1474 1473 1473 1472 1471 1470 1468 1467 1465 1464 1462 1460 1458 1455 1453 1450 1448 1446 1443 1439 1436 1433 1431 1428 1425 1422 1419 1416 1414 1412 1410